FENGYUN 1C DEB

Satellite information

Favourite Embed

Satellite Type and Status

DEBRISIN ORBIT

Key statistics

Satellite FENGYUN 1C DEB at a glance.

Uptime

9495

Days in orbit

Revolutions

≈ 14.1

Per day

Orbit

SSO

Sun Synchronous Orbit

Inclination

99.2

Latest

Satellite identification and parameters

Extended collection of information and parameters for FENGYUN 1C DEB.

Object identification

Identified? True

Debris? True

Object name: FENGYUN 1C DEB

International designator: 1999-025BST

Object number (NORAD): 31387

Object ID (CCSDS): 31387

Country: PEOPLES REPUBLIC OF CHINA (PRC)

Current information (Y/N): Y

RCS size: SMALL

Orbital parameters

Period: 101.893 minutes

Inclination: 99.2001 deg

SMA: 7226.416 km

Apoapsis: 1024.378 km

Periapsis: 672.184 km

RAAN: 359.3237 deg

Eccentricy: 0.0243685

Argument of periapsis: 69.7997 deg

Mean anomaly: 292.92 deg

Mean motion: 14.13247887 rev/day

Mean motion (dot): 0.00000839 rev/day2

B* drag term: 0.00035676 1/REarth

Two-line elements (TLE)

Creation date: May 7, 2025, 3:14 a.m.

Reference frame: TEME

Reference center: EARTH

Epoch: May 6, 2025, 8:57 p.m. UTC

TLE line 0: 0 FENGYUN 1C DEB

TLE line 1: 1 31387U 99025BST 25126.87360611 .00000839 00000-0 35676-3 0 9995

TLE line 2: 2 31387 99.2001 359.3237 0243685 69.7997 292.9200 14.13247887931914

Live tracking on map

Real-time ground track for satellite FENGYUN 1C DEB.

In-orbit conjunctions

A list of the most updated potential collisions computed for object FENGYUN 1C DEB.

Target Orbit TCA Probability of collision Miss distance Type
CZ-6A DEB LEO 2025-01-29 15:25:04 0.0004083162 591.0 (m) DEBRIS
COSMOS 626 LEO 2024-11-16 09:14:15 0.0001336827 720.0 (m) PAYLOAD
CZ-6A DEB LEO 2024-11-14 22:26:31 0.0008759902 270.0 (m) DEBRIS
OBJECT D LEO 2024-10-16 10:58:50 0.0006861248 186.0 (m) UNKNOWN
THOR AGENA D R/B SSO 2024-07-28 21:22:00 0.0002089309 265.0 (m) ROCKET BODY

Associated space launch

Chinese polar orbiting meteorological satellite

FENGYUN 1C DEB was lifted into orbit during the mission ‘Long March 4B | Feng Yun 1C’, on board a Long March 4B space rocket.

The launch took place on May 10, 1999, 1:33 a.m. from Launch Complex 7.

For more information about the launch, click the button.

Launch to space Long March 4B | Feng Yun 1C
Long March 4B | Feng Yun 1C

Agency: N/A

Status: Launch Successful

Launch date: May 10, 1999, 1:33 a.m. UTC

Rocket: Long March 4B

Launch pad: Launch Complex 7

Location: Taiyuan Satellite Launch Center, People's Republic of China

...

Latest news about this satellite

There are no fresh news available about this satellite. Check back as we update our databases every day.


Newsletter sign-up

Weekly statistics, charts and insights to help you stay on top of the space industry.